Time,TemperatureF,DewpointF,PressureIn,WindDirection,WindDirectionDegrees,WindSpeedMPH,WindSpeedGustMPH,Humidity,HourlyPrecipIn,Conditions,Clouds,dailyrainin,SoftwareType,DateUTC
2013-04-15 00:12:00,52.9,52.6,29.45,ESE,112,3.7,-999.0,99,-99.99,,,0.00,Acu-Link.com,2013-04-15 05:12:00,
2013-04-15 00:28:00,53.1,52.8,29.45,SE,135,4.2,-999.0,99,-99.99,,,0.00,Acu-Link.com,2013-04-15 05:28:00,
2013-04-15 00:43:00,54.0,53.7,29.45,South,180,3.7,-999.0,99,-99.99,,,0.00,Acu-Link.com,2013-04-15 05:43:00,
2013-04-15 00:58:00,60.1,59.8,29.44,SSE,157,15.5,-999.0,99,-99.99,,,0.00,Acu-Link.com,2013-04-15 05:58:00,
2013-04-15 01:13:00,62.4,58.2,29.45,SW,225,11.4,-999.0,86,-99.99,,,0.00,Acu-Link.com,2013-04-15 06:13:00,
2013-04-15 01:29:00,62.2,58.0,29.46,SSW,202,11.9,-999.0,86,-99.99,,,0.00,Acu-Link.com,2013-04-15 06:29:00,
2013-04-15 01:44:00,59.2,58.9,29.49,South,180,22.7,-999.0,99,-99.99,,,0.01,Acu-Link.com,2013-04-15 06:44:00,
2013-04-15 01:59:00,56.8,56.5,29.50,SSW,202,15.0,-999.0,99,-99.99,,,0.02,Acu-Link.com,2013-04-15 06:59:00,
2013-04-15 02:45:00,54.9,54.6,29.51,SW,225,10.9,-999.0,99,-99.99,,,0.07,Acu-Link.com,2013-04-15 07:45:00,
2013-04-15 03:00:00,54.5,54.2,29.52,SSW,202,6.3,-999.0,99,-99.99,,,0.10,Acu-Link.com,2013-04-15 08:00:00,
2013-04-15 03:15:00,54.3,54.0,29.52,SW,225,2.7,-999.0,99,-99.99,,,0.11,Acu-Link.com,2013-04-15 08:15:00,
2013-04-15 03:31:00,54.0,53.7,29.51,South,180,2.7,-999.0,99,-99.99,,,0.11,Acu-Link.com,2013-04-15 08:31:00,
2013-04-15 04:31:00,53.2,52.9,29.54,WSW,247,4.2,-999.0,99,-99.99,,,0.16,Acu-Link.com,2013-04-15 09:31:00,
2013-04-15 04:47:00,52.9,52.6,29.55,SSW,202,4.2,-999.0,99,-99.99,,,0.17,Acu-Link.com,2013-04-15 09:47:00,
2013-04-15 05:02:00,52.5,52.2,29.54,South,180,0.0,-999.0,99,-99.99,,,0.17,Acu-Link.com,2013-04-15 10:02:00,
2013-04-15 05:17:00,52.3,52.0,29.56,West,270,1.7,-999.0,99,-99.99,,,0.17,Acu-Link.com,2013-04-15 10:17:00,
2013-04-15 05:32:00,52.5,52.2,29.54,South,180,0.0,-999.0,99,-99.99,,,0.17,Acu-Link.com,2013-04-15 10:32:00,
2013-04-15 05:47:00,53.1,52.8,29.55,South,180,5.3,-999.0,99,-99.99,,,0.17,Acu-Link.com,2013-04-15 10:47:00,
2013-04-15 06:03:00,52.2,51.9,29.54,SW,225,4.2,-999.0,99,-99.99,,,0.17,Acu-Link.com,2013-04-15 11:03:00,
2013-04-15 06:24:00,52.3,52.0,29.55,SW,225,5.3,-999.0,99,-99.99,,,0.17,Acu-Link.com,2013-04-15 11:24:00,
2013-04-15 06:40:00,52.0,51.7,29.55,South,180,4.2,-999.0,99,-99.99,,,0.17,Acu-Link.com,2013-04-15 11:40:00,
2013-04-15 06:55:00,52.0,51.7,29.56,SW,225,4.7,-999.0,99,-99.99,,,0.17,Acu-Link.com,2013-04-15 11:55:00,
2013-04-15 07:10:00,52.2,51.9,29.57,WSW,247,4.2,-999.0,99,-99.99,,,0.17,Acu-Link.com,2013-04-15 12:10:00,
2013-04-15 07:41:00,51.8,51.5,29.58,WSW,247,8.9,-999.0,99,-99.99,,,0.17,Acu-Link.com,2013-04-15 12:41:00,
2013-04-15 08:12:00,52.3,52.0,29.57,SSW,202,4.7,-999.0,99,-99.99,,,0.17,Acu-Link.com,2013-04-15 13:12:00,
2013-04-15 08:27:00,53.1,52.8,29.58,SW,225,4.2,-999.0,99,-99.99,,,0.17,Acu-Link.com,2013-04-15 13:27:00,
2013-04-15 08:42:00,53.4,53.1,29.57,SSW,202,5.8,-999.0,99,-99.99,,,0.17,Acu-Link.com,2013-04-15 13:42:00,
2013-04-15 08:58:00,53.6,53.3,29.58,SSW,202,5.3,-999.0,99,-99.99,,,0.17,Acu-Link.com,2013-04-15 13:58:00,
2013-04-15 09:13:00,54.9,54.6,29.59,West,270,4.7,-999.0,99,-99.99,,,0.17,Acu-Link.com,2013-04-15 14:13:00,
2013-04-15 09:28:00,54.9,54.6,29.60,West,270,7.8,-999.0,99,-99.99,,,0.18,Acu-Link.com,2013-04-15 14:28:00,
2013-04-15 09:43:00,55.8,55.5,29.60,SW,225,8.9,-999.0,99,-99.99,,,0.18,Acu-Link.com,2013-04-15 14:43:00,
2013-04-15 09:58:00,56.3,56.0,29.60,SSW,202,6.3,-999.0,99,-99.99,,,0.18,Acu-Link.com,2013-04-15 14:58:00,
2013-04-15 10:14:00,56.1,55.8,29.61,SSW,202,6.3,-999.0,99,-99.99,,,0.18,Acu-Link.com,2013-04-15 15:14:00,
2013-04-15 10:29:00,55.8,55.5,29.60,SW,225,16.1,-999.0,99,-99.99,,,0.18,Acu-Link.com,2013-04-15 15:29:00,
2013-04-15 10:59:00,56.7,56.4,29.60,SSW,202,7.8,-999.0,99,-99.99,,,0.18,Acu-Link.com,2013-04-15 15:59:00,
2013-04-15 11:15:00,56.8,56.5,29.61,SSW,202,13.0,-999.0,99,-99.99,,,0.18,Acu-Link.com,2013-04-15 16:15:00,
2013-04-15 11:30:00,57.2,56.9,29.60,South,180,6.8,-999.0,99,-99.99,,,0.18,Acu-Link.com,2013-04-15 16:30:00,
2013-04-15 12:31:00,59.9,59.6,29.59,SW,225,9.9,-999.0,99,-99.99,,,0.18,Acu-Link.com,2013-04-15 17:31:00,
2013-04-15 12:46:00,61.0,60.7,29.61,SW,225,9.4,-999.0,99,-99.99,,,0.18,Acu-Link.com,2013-04-15 17:46:00,
2013-04-15 13:02:00,60.8,60.5,29.61,SW,225,7.3,-999.0,99,-99.99,,,0.18,Acu-Link.com,2013-04-15 18:02:00,
2013-04-15 13:17:00,61.2,60.3,29.62,SW,225,10.9,-999.0,97,-99.99,,,0.18,Acu-Link.com,2013-04-15 18:17:00,
2013-04-15 13:32:00,61.5,59.2,29.62,SW,225,13.0,-999.0,92,-99.99,,,0.18,Acu-Link.com,2013-04-15 18:32:00,
2013-04-15 13:47:00,61.9,59.5,29.62,SW,225,14.5,-999.0,92,-99.99,,,0.18,Acu-Link.com,2013-04-15 18:47:00,
2013-04-15 14:02:00,65.3,57.2,29.63,SW,225,11.9,-999.0,75,-99.99,,,0.18,Acu-Link.com,2013-04-15 19:02:00,
2013-04-15 14:18:00,63.1,53.5,29.63,SW,225,11.9,-999.0,71,-99.99,,,0.18,Acu-Link.com,2013-04-15 19:18:00,
2013-04-15 14:33:00,62.6,52.3,29.63,SW,225,10.4,-999.0,69,-99.99,,,0.18,Acu-Link.com,2013-04-15 19:33:00,
2013-04-15 14:48:00,61.9,47.9,29.64,West,270,13.5,-999.0,60,-99.99,,,0.18,Acu-Link.com,2013-04-15 19:48:00,
2013-04-15 15:03:00,61.5,44.2,29.65,West,270,14.0,-999.0,53,-99.99,,,0.18,Acu-Link.com,2013-04-15 20:03:00,
2013-04-15 15:19:00,58.3,45.8,29.66,West,270,5.8,-999.0,63,-99.99,,,0.18,Acu-Link.com,2013-04-15 20:19:00,
2013-04-15 15:34:00,56.7,43.0,29.67,WNW,292,8.3,-999.0,60,-99.99,,,0.18,Acu-Link.com,2013-04-15 20:34:00,
2013-04-15 15:49:00,55.6,40.6,29.68,West,270,12.5,-999.0,57,-99.99,,,0.18,Acu-Link.com,2013-04-15 20:49:00,
2013-04-15 16:04:00,54.9,39.5,29.69,West,270,6.8,-999.0,56,-99.99,,,0.18,Acu-Link.com,2013-04-15 21:04:00,
2013-04-15 16:20:00,54.5,39.1,29.68,SW,225,9.4,-999.0,56,-99.99,,,0.18,Acu-Link.com,2013-04-15 21:20:00,
2013-04-15 16:35:00,54.3,42.4,29.69,SW,225,6.3,-999.0,64,-99.99,,,0.18,Acu-Link.com,2013-04-15 21:35:00,
2013-04-15 16:50:00,53.6,42.9,29.70,West,270,10.9,-999.0,67,-99.99,,,0.18,Acu-Link.com,2013-04-15 21:50:00,
2013-04-15 17:21:00,48.7,47.3,29.72,WNW,292,6.3,-999.0,95,-99.99,,,0.18,Acu-Link.com,2013-04-15 22:21:00,
2013-04-15 17:36:00,47.5,47.2,29.71,West,270,3.2,-999.0,99,-99.99,,,0.18,Acu-Link.com,2013-04-15 22:36:00,
2013-04-15 17:52:00,46.6,46.3,29.71,WSW,247,7.8,-999.0,99,-99.99,,,0.18,Acu-Link.com,2013-04-15 22:52:00,
2013-04-15 18:07:00,45.9,45.6,29.72,WSW,247,4.2,-999.0,99,-99.99,,,0.18,Acu-Link.com,2013-04-15 23:07:00,
2013-04-15 18:22:00,45.0,44.7,29.70,West,270,0.0,-999.0,99,-99.99,,,0.19,Acu-Link.com,2013-04-15 23:22:00,
2013-04-15 18:37:00,44.4,44.1,29.70,West,270,0.0,-999.0,99,-99.99,,,0.20,Acu-Link.com,2013-04-15 23:37:00,
2013-04-15 18:52:00,44.1,43.8,29.71,WSW,247,3.7,-999.0,99,-99.99,,,0.29,Acu-Link.com,2013-04-15 23:52:00,
2013-04-15 19:08:00,43.7,43.4,29.72,WSW,247,3.2,-999.0,99,-99.99,,,0.34,Acu-Link.com,2013-04-16 00:08:00,
2013-04-15 19:23:00,43.7,43.4,29.70,WSW,247,2.2,-999.0,99,-99.99,,,0.37,Acu-Link.com,2013-04-16 00:23:00,
2013-04-15 19:38:00,43.5,43.2,29.70,SSW,202,0.0,-999.0,99,-99.99,,,0.39,Acu-Link.com,2013-04-16 00:38:00,
2013-04-15 19:53:00,43.5,43.2,29.69,WSW,247,1.7,-999.0,99,-99.99,,,0.41,Acu-Link.com,2013-04-16 00:53:00,
2013-04-15 20:09:00,43.3,43.0,29.72,West,270,4.2,-999.0,99,-99.99,,,0.44,Acu-Link.com,2013-04-16 01:09:00,
2013-04-15 20:24:00,43.2,42.9,29.73,WSW,247,5.3,-999.0,99,-99.99,,,0.44,Acu-Link.com,2013-04-16 01:24:00,
2013-04-15 20:39:00,43.2,42.9,29.73,SSE,157,4.7,-999.0,99,-99.99,,,0.46,Acu-Link.com,2013-04-16 01:39:00,
2013-04-15 20:54:00,43.2,42.9,29.75,SW,225,2.2,-999.0,99,-99.99,,,0.48,Acu-Link.com,2013-04-16 01:54:00,
2013-04-15 21:09:00,43.2,42.9,29.76,SW,225,5.8,-999.0,99,-99.99,,,0.49,Acu-Link.com,2013-04-16 02:09:00,
2013-04-15 21:25:00,43.0,42.7,29.78,SW,225,6.3,-999.0,99,-99.99,,,0.49,Acu-Link.com,2013-04-16 02:25:00,
2013-04-15 21:40:00,43.0,42.7,29.77,SW,225,5.8,-999.0,99,-99.99,,,0.51,Acu-Link.com,2013-04-16 02:40:00,
2013-04-15 21:55:00,42.6,42.3,29.79,SSW,202,5.3,-999.0,99,-99.99,,,0.53,Acu-Link.com,2013-04-16 02:55:00,
2013-04-15 22:10:00,42.3,42.0,29.79,SW,225,5.3,-999.0,99,-99.99,,,0.55,Acu-Link.com,2013-04-16 03:10:00,
2013-04-15 22:25:00,41.9,41.6,29.80,SSW,202,4.2,-999.0,99,-99.99,,,0.58,Acu-Link.com,2013-04-16 03:25:00,
2013-04-15 22:41:00,41.7,41.4,29.81,SW,225,7.3,-999.0,99,-99.99,,,0.59,Acu-Link.com,2013-04-16 03:41:00,
2013-04-15 22:56:00,41.7,41.4,29.80,SSW,202,2.7,-999.0,99,-99.99,,,0.59,Acu-Link.com,2013-04-16 03:56:00,
2013-04-15 23:11:00,41.7,41.4,29.80,SW,225,3.7,-999.0,99,-99.99,,,0.65,Acu-Link.com,2013-04-16 04:11:00,
2013-04-15 23:27:00,41.4,41.1,29.80,SW,225,2.7,-999.0,99,-99.99,,,0.66,Acu-Link.com,2013-04-16 04:27:00,
2013-04-15 23:42:00,41.2,40.9,29.80,SSW,202,4.7,-999.0,99,-99.99,,,0.66,Acu-Link.com,2013-04-16 04:42:00,
2013-04-15 23:57:00,40.8,40.5,29.80,West,270,2.2,-999.0,99,-99.99,,,0.66,Acu-Link.com,2013-04-16 04:57:00,